Regional Weather Roundup
Issued by NWS Green Bay, WI

Home | Current Version | Previous Version | Text Only | Print | Product List | Glossary On
Versions: 1 2 3 4 5 6 7 8 9 10 11 12 13 14 15 16 17 18 19 20 21 22 23 24 25 26 27 28 29 30 31 32 33 34 35 36 37 38 39 40 41 42 43 44 45 46 47 48 49 50
658
ASUS43 KGRB 130611
RWRGRB

NORTH-CENTRAL AND NORTHEAST WISCONSIN REGIONAL WEATHER ROUNDUP
NATIONAL WEATHER SERVICE GREEN BAY WI
1200 AM CST SAT FEB 13 2016

WIZ005-009-010>012-018-019-130700-
NORTH CENTRAL WISCONSIN

CITY           SKY/WX    TMP DP  RH WIND       PRES   REMARKS
IRONWOOD       CLOUDY     1  -2  85 NW9       30.39R VSB 1   WCI -14
MANITOWISH WTR LGT SNOW  -6 -11  79 NW9       30.35S WCI -22
ARBOR VITAE    FLURRIES  -4 -10  75 NW7       30.35R WCI -17
EAGLE RIVER    FLURRIES  -6 -11  77 W5        30.32R WCI -16
LAND O LAKES   PTCLDY    -1  -6  80 NW7       30.32R WCI -15
RHINELANDER    CLEAR     -7 -15  68 W9        30.34S WCI -24
PHILLIPS       CLOUDY    -9 -17  68 CALM      30.41S
ANTIGO         CLEAR     -6 -14  68 NW10      30.35S WCI -24
TOMAHAWK       CLEAR     -7 -15  66 NW9       30.39R WCI -24
MERRILL        NOT AVBL
$$

WIZ013-073-130700-
NORTHEAST WISCONSIN

CITY           SKY/WX    TMP DP  RH WIND       PRES   REMARKS
IRON MOUNTAIN  CLEAR     -9 -14  78 CALM      30.33R
MARINETTE      CLEAR      0  -9  65 W6        30.40S WCI -12
OCONTO         CLEAR     -3 -12  65 W7        30.44R WCI -16
$$

WIZ017-030-035>037-045-130700-
CENTRAL WISCONSIN

CITY           SKY/WX    TMP DP  RH WIND       PRES   REMARKS
MEDFORD        CLEAR     -6 -18  56 NW9       30.41R WCI -22
WAUSAU         CLEAR     -2 -15  54 NW9       30.41R WCI -18
MOSINEE        CLEAR     -4 -15  59 CALM      30.43S
MARSHFIELD     CLEAR     -3 -19  46 NW10      30.44R WCI -20
WISC RAPIDS    CLEAR     -3 -17  51 NW7       30.49R WCI -16
STEVENS POINT  CLEAR     -4 -17  52 W6        30.45S WCI -16
WAUPACA        CLEAR      1 -14  48 W6        30.47S WCI -10
SHAWANO        PTCLDY     1 -12  56 W8        30.45R WCI -14
CLINTONVILLE   CLEAR      0 -15  50 W6        30.45S WCI -12
WAUTOMA        PTCLDY    -3 -17  51 NW9       30.49S WCI -19
$$

WIZ038-039-048-051-130700-
FOX VALLEY

CITY           SKY/WX    TMP DP  RH WIND       PRES   REMARKS
NWS GREEN BAY  CLEAR     -1 -12  59 W12       30.45R WCI -18
APPLETON       CLEAR      0 -15  50 W13       30.42S WCI -18
OSHKOSH        CLEAR     -1 -13  56 W9        30.45S WCI -16
FOND DU LAC    MIX PCPN   0 -12  57 W9        30.46S WCI -15
$$

WIZ022-050-052-130700-
EAST CENTRAL WISCONSIN

CITY           SKY/WX    TMP DP  RH WIND       PRES   REMARKS
EPHRAIM        FAIR       1  -7  71 W10       30.36S WCI -16
STURGEON BAY   CLEAR      0 -11  60 W10       30.41S WCI -17
MANITOWOC      CLEAR      0 -11  59 NW15      30.44R WCI -19
SHEBOYGAN      CLEAR      1 -12  54 NW9       30.44R WCI -14
$$

LMZ563-521-522-541>543-130700-
LAKESHORE

STATION/POSITION TIME  TEMP    WIND        PRES    VSBY  WAVE
                       AIR SEA DIR/SP/G                  HT/PER
                 (UTC) (F)     (DEG/KT/KT) (MB)    (MI)  (FT/S)
SHEBOYGAN LKSHOR 0600    2     290/ 15/ 17 1032.8R
KEWAUNEE LKSHORE 0512    1     300/  8/ 10 1029.2R
ALGOMA MARINA    0511          310/  6/  9   N/A
SISTER BAY LKSHO 0505    2     310/ 21/ 25   N/A
CHAMBERS ISLAND  0500    1     260/  8/ 15 1029.1R
MENOMINEE LKSHOR 0500    0     270/ 11     1028.4R
$$




USA.gov is the U.S. government's official web portal to all federal, state and local government web resources and services.